This is the latest recevied weather packets stored in our database for station/object KI7JYE. If no packets are shown the sender has not sent any weather packets the latest 10 day(s).
| Time | Temp. | Humidity | Pressure | Rain* | Wind** | Luminosity | Snow |
|---|---|---|---|---|---|---|---|
| 1777716447 | 11.11° C | 77% | 1014.7 hPa | 0 mm | - | 0 W/m² | - |
| 1777716146 | 11.11° C | 76% | 1014.8 hPa | 0 mm | - | 0 W/m² | - |
| 1777715844 | 11.11° C | 75% | 1014.7 hPa | 0 mm | - | 0 W/m² | - |
| 1777715541 | 11.11° C | 75% | 1014.8 hPa | 0 mm | - | 0 W/m² | - |
| 1777715239 | 11.11° C | 78% | 1014.6 hPa | 0 mm | - | 0 W/m² | - |
| 1777714936 | 11.11° C | 78% | 1014.8 hPa | 0 mm | - | 0 W/m² | - |
| 1777714634 | 11.11° C | 77% | 1014.8 hPa | 0 mm | - | 0 W/m² | - |
| 1777714332 | 11.11° C | 79% | 1014.9 hPa | 0 mm | - | 0 W/m² | - |
| 1777714029 | 11.11° C | 83% | 1015.1 hPa | 0 mm | - | 0 W/m² | - |
| 1777713727 | 11.11° C | 85% | 1015.2 hPa | 0 mm | - | 0 W/m² | - |
| 1777713423 | 11.11° C | 85% | 1015.5 hPa | 0 mm | - | 0 W/m² | - |
| 1777713120 | 11.11° C | 86% | 1015.6 hPa | 0 mm | - | 0 W/m² | - |
| 1777712817 | 11.67° C | 86% | 1015.5 hPa | 0 mm | - | 0 W/m² | - |
| 1777712514 | 11.67° C | 86% | 1015.8 hPa | 0 mm | - | 0 W/m² | - |
| 1777712211 | 11.67° C | 85% | 1015.9 hPa | 0 mm | - | 0 W/m² | - |
| 1777711907 | 11.67° C | 84% | 1015.9 hPa | 0 mm | - | 0 W/m² | - |
| 1777711604 | 11.67° C | 84% | 1016 hPa | 0 mm | - | 0 W/m² | - |
| 1777711299 | 11.67° C | 84% | 1016.1 hPa | 0 mm | - | 0 W/m² | - |
| 1777710996 | 11.67° C | 84% | 1015.9 hPa | 0 mm | - | 0 W/m² | - |
| 1777710693 | 11.67° C | 84% | 1016.1 hPa | 0 mm | - | 0 W/m² | - |
| 1777710391 | 11.67° C | 83% | 1015.7 hPa | 0 mm | - | 0 W/m² | - |
| 1777710087 | 11.67° C | 83% | 1015.8 hPa | 0 mm | - | 0 W/m² | - |
| 1777709785 | 11.67° C | 84% | 1015.7 hPa | 0 mm | - | 0 W/m² | - |
| 1777709481 | 11.67° C | 86% | 1015.9 hPa | 0 mm | - | 0 W/m² | - |
| 1777709180 | 11.67° C | 87% | 1015.8 hPa | 0 mm | - | 0 W/m² | - |
* Rain latest hour (hover to see other rain measurements)
** Current wind speed in m/s (hover to see current wind gust speed)